This is the latest recevied weather packets stored in our database for station/object KD0SBN-3. If no packets are shown the sender has not sent any weather packets the latest 10 day(s).
| Time | Temp. | Humidity | Pressure | Rain* | Wind** | Luminosity | Snow |
|---|---|---|---|---|---|---|---|
| 1777729859 | 4.44° C | 37% | 1031.1 hPa | 0 mm | - | 220 W/m² | - |
| 1777729556 | 4.44° C | 36% | 1031.3 hPa | 0 mm | - | 203 W/m² | - |
| 1777729253 | 4.44° C | 39% | 1031.1 hPa | 0 mm | - | 187 W/m² | - |
| 1777728949 | 3.33° C | 40% | 1031.4 hPa | 0 mm | - | 171 W/m² | - |
| 1777728646 | 3.33° C | 43% | 1031 hPa | 0 mm | - | 156 W/m² | - |
| 1777728343 | 2.78° C | 44% | 1031.4 hPa | 0 mm | - | 141 W/m² | - |
| 1777728040 | 2.78° C | 44% | 1031.1 hPa | 0 mm | - | 125 W/m² | - |
| 1777727737 | 2.78° C | 47% | 1031.1 hPa | 0 mm | - | 111 W/m² | - |
| 1777727434 | 2.78° C | 47% | 1031 hPa | 0 mm | - | 99 W/m² | - |
| 1777727132 | 2.22° C | 45% | 1031 hPa | 0 mm | - | 86 W/m² | - |
| 1777726830 | 1.67° C | 45% | 1031 hPa | 0 mm | - | 74 W/m² | - |
| 1777726526 | 1.11° C | 46% | 1031 hPa | 0 mm | - | 63 W/m² | - |
| 1777726223 | 0.56° C | 47% | 1030.7 hPa | 0 mm | - | 42 W/m² | - |
| 1777725919 | 0° C | 48% | 1030.9 hPa | 0 mm | - | 37 W/m² | - |
| 1777725617 | 0° C | 49% | 1030.7 hPa | 0 mm | - | 24 W/m² | - |
| 1777725315 | 0° C | 50% | 1030.5 hPa | 0 mm | - | 20 W/m² | - |
| 1777725011 | 0° C | 50% | 1030.6 hPa | 0 mm | - | 17 W/m² | - |
| 1777724708 | 0° C | 51% | 1030.6 hPa | 0 mm | - | 14 W/m² | - |
| 1777724405 | -0.56° C | 51% | 1030.5 hPa | 0 mm | - | 11 W/m² | - |
| 1777724102 | -0.56° C | 53% | 1030.5 hPa | 0 mm | - | 9 W/m² | - |
| 1777723800 | -0.56° C | 52% | 1030.4 hPa | 0 mm | - | 6 W/m² | - |
| 1777723496 | -0.56° C | 53% | 1030.4 hPa | 0 mm | - | 4 W/m² | - |
| 1777723193 | -0.56° C | 52% | 1030.4 hPa | 0 mm | - | 2 W/m² | - |
| 1777722890 | -0.56° C | 53% | 1030.4 hPa | 0 mm | - | 1 W/m² | - |
| 1777722586 | -0.56° C | 54% | 1030.4 hPa | 0 mm | - | 0 W/m² | - |
* Rain latest hour (hover to see other rain measurements)
** Current wind speed in m/s (hover to see current wind gust speed)